[[{"header":{"parameterUnit":"m.s-1","parameterCategory":1,"la1":30.2992,"la2":30.254,"lo1":-89.0895,"lo2":-89.0443,"dy":0.0025,"dx":0.0025,"nx":19,"ny":19,"refTime":"2026-03-09T21:00:00:Z","depth":0,"parameterNumber":2,"parameterNumberName":"U-component_of_WINDS"},"data":[0,0,0,-0.7373,-0.7372,-0.7322,-0.7321,-0.7265,-0.7265,0,0,0,0,0,0,0,0,0,0,0,-0.7393,-0.7393,-0.7373,-0.7372,-0.7322,-0.7321,-0.7265,-0.7265,0,0,0,0,0,0,0,0,0,0,0,-0.7393,-0.7393,-0.7392,-0.7372,-0.7322,-0.7321,-0.7265,-0.7301,0,0,0,0,0,0,0,0,0,0,-0.7349,-0.737,-0.7393,-0.7392,-0.7372,-0.7322,-0.7321,-0.7302,-0.7298,-0.7291,0,-0.7286,0,-0.7274,-0.7261,-0.7261,0,0,0,-0.7369,-0.7374,-0.7356,-0.7392,-0.7371,-0.7322,-0.7344,-0.73,-0.7296,-0.7287,-0.7285,-0.7282,-0.7273,-0.7261,-0.7261,-0.7229,-0.7229,0,0,-0.7372,-0.7386,-0.7359,-0.7353,-0.7361,-0.7345,-0.7342,-0.7297,-0.7297,-0.7285,-0.7281,-0.7272,-0.7261,-0.726,-0.7229,-0.7229,0,0,0,-0.7382,-0.7388,-0.7371,-0.7356,-0.7346,-0.7344,-0.734,-0.7299,-0.7292,-0.728,-0.7272,-0.726,-0.726,-0.7229,-0.7229,-0.7242,0,0,0,-0.7384,-0.7394,-0.7373,-0.7381,-0.7347,-0.7322,-0.7343,-0.7295,-0.729,-0.7272,-0.726,-0.7259,-0.7229,-0.7229,-0.7242,-0.7246,0,0,0,-0.7395,-0.7395,-0.7389,-0.7382,-0.736,-0.7322,-0.7313,-0.7293,-0.7284,-0.7261,-0.7259,-0.7229,-0.7229,-0.7242,-0.7246,-0.7242,0,0,0,-0.7411,-0.7402,-0.739,-0.7377,-0.7361,-0.733,-0.7313,-0.7289,-0.7271,-0.726,-0.7229,-0.7229,-0.7241,-0.7245,-0.7242,-0.7241,-0.7242,0,0,-0.7408,-0.7402,-0.7394,-0.7381,-0.7356,-0.7337,-0.7314,-0.7284,-0.727,-0.7244,-0.7243,-0.7242,-0.7245,-0.7242,-0.7244,-0.7246,0,0,0,-0.7397,-0.7391,-0.7382,-0.7365,-0.7341,-0.7322,-0.7294,-0.7283,-0.726,-0.7259,-0.724,-0.7241,-0.7238,-0.7238,-0.7238,-0.7235,-0.7229,-0.7229,-0.7229,-0.7413,-0.7395,-0.7379,-0.7355,-0.7339,-0.731,-0.7296,-0.7276,-0.7262,-0.7258,-0.725,-0.7254,-0.7253,-0.7254,-0.7251,-0.7249,-0.7249,-0.7249,-0.7249,-0.7407,-0.7396,-0.7378,-0.7356,-0.7337,-0.732,-0.7292,-0.7283,-0.7264,-0.7258,-0.7255,-0.7249,-0.7256,-0.7252,-0.725,-0.7249,-0.7249,-0.7249,-0.7249,-0.7415,-0.7407,-0.7393,-0.7367,-0.7349,-0.7325,-0.7308,-0.7291,-0.7275,-0.7272,-0.7262,-0.7262,-0.7259,-0.7269,-0.7269,-0.7269,-0.7269,-0.7269,-0.7269,-0.7429,-0.7414,-0.74,-0.7375,-0.7363,-0.7343,-0.7316,-0.7303,-0.7284,-0.7274,-0.7273,-0.726,-0.726,-0.726,-0.7269,-0.7269,-0.7269,-0.7269,-0.7269,-0.7429,-0.7427,-0.7407,-0.7394,-0.7363,-0.7347,-0.7326,-0.7301,-0.7288,-0.7281,-0.7268,-0.7271,-0.7264,-0.7263,-0.7263,-0.7272,-0.7272,-0.7272,-0.7272,-0.7436,-0.7431,-0.7407,-0.7387,-0.7366,-0.7346,-0.7325,-0.7303,-0.7281,-0.7272,-0.7269,-0.7267,-0.7267,-0.726,-0.726,-0.7259,-0.7267,-0.7267,-0.7267,-0.7435,-0.7428,-0.7412,-0.7389,-0.7365,-0.7344,-0.7324,-0.7303,-0.7278,-0.7267,-0.7265,-0.7265,-0.7263,-0.7263,-0.7252,-0.7251,-0.725,0,0]},{"header":{"parameterUnit":"m.s-1","parameterCategory":1,"la1":30.2992,"la2":30.254,"lo1":-89.0895,"lo2":-89.0443,"dy":0.0025,"dx":0.0025,"nx":19,"ny":19,"refTime":"2026-03-09T21:00:00:Z","depth":0,"parameterNumber":3,"parameterNumberName":"V-component_of_WINDS"},"data":[0,0,0,3.0784,3.0783,3.0721,3.0721,3.0649,3.0648,0,0,0,0,0,0,0,0,0,0,0,3.0808,3.0808,3.0784,3.0783,3.0721,3.0721,3.0649,3.0648,0,0,0,0,0,0,0,0,0,0,0,3.0808,3.0808,3.0807,3.0783,3.0721,3.0721,3.0649,3.0693,0,0,0,0,0,0,0,0,0,0,3.0752,3.0779,3.0808,3.0807,3.0782,3.0721,3.0721,3.0695,3.069,3.068,0,3.0674,0,3.066,3.0644,3.0644,0,0,0,3.0778,3.0783,3.0762,3.0807,3.0782,3.0721,3.0748,3.0692,3.0687,3.0674,3.0673,3.067,3.0659,3.0644,3.0643,3.0606,3.0606,0,0,3.0782,3.0799,3.0765,3.0759,3.077,3.075,3.0746,3.0689,3.0688,3.0673,3.0668,3.0658,3.0643,3.0643,3.0606,3.0606,0,0,0,3.0795,3.0802,3.0782,3.0762,3.075,3.0748,3.0744,3.069,3.0683,3.0667,3.0657,3.0643,3.0642,3.0606,3.0606,3.0626,0,0,0,3.0797,3.0809,3.0783,3.0793,3.0752,3.072,3.0747,3.0687,3.068,3.0657,3.0643,3.0642,3.0606,3.0606,3.0625,3.0632,0,0,0,3.081,3.0811,3.0804,3.0794,3.0769,3.072,3.0709,3.0685,3.0674,3.0644,3.0641,3.0606,3.0606,3.0625,3.0631,3.0628,0,0,0,3.0829,3.082,3.0804,3.0791,3.0769,3.0734,3.0709,3.0681,3.0658,3.0643,3.0606,3.0606,3.0624,3.063,3.0628,3.063,3.0632,0,0,3.0827,3.082,3.0811,3.0795,3.0767,3.0742,3.0716,3.0677,3.0657,3.0624,3.0623,3.0625,3.0631,3.0628,3.0639,3.0641,0,0,0,3.0817,3.081,3.0799,3.0779,3.0751,3.0728,3.0692,3.0678,3.0649,3.0644,3.0623,3.0625,3.0623,3.0623,3.0625,3.0623,3.0607,3.0607,3.0607,3.0838,3.0816,3.08,3.0771,3.0752,3.0717,3.0699,3.0674,3.0654,3.065,3.064,3.0649,3.065,3.0651,3.0649,3.0639,3.0639,3.0639,3.0639,3.0834,3.0822,3.0801,3.0777,3.0754,3.0733,3.07,3.0687,3.0665,3.0654,3.0651,3.0642,3.0654,3.0651,3.064,3.064,3.064,3.064,3.064,3.0846,3.0836,3.0821,3.0792,3.0772,3.0743,3.0724,3.0702,3.0681,3.0679,3.0666,3.0666,3.0664,3.0674,3.0675,3.0675,3.0675,3.0675,3.0675,3.0864,3.0846,3.0833,3.0806,3.0791,3.077,3.0736,3.0721,3.0699,3.0685,3.0685,3.0667,3.066,3.0659,3.0675,3.0675,3.0675,3.0675,3.0675,3.0868,3.0864,3.0844,3.0831,3.0797,3.078,3.0754,3.0726,3.0711,3.0702,3.0686,3.0684,3.0674,3.0673,3.0672,3.069,3.069,3.069,3.069,3.0878,3.0872,3.0848,3.0828,3.0806,3.0782,3.076,3.0735,3.0707,3.0697,3.0691,3.0688,3.0687,3.0678,3.0677,3.0675,3.0694,3.0694,3.0694,3.088,3.0872,3.0857,3.0833,3.0806,3.0784,3.0763,3.0741,3.0709,3.0694,3.0688,3.0688,3.0683,3.0682,3.0666,3.0664,3.0661,0,0]}]]